This demonstration page uses our WeatherBlox Daily Observations layout. Learn more.

Left ArrowRight Arrow

39.01783, -85.05884

Hourly Observations for July 8, 2018

Temp ( °F °C ) Dew Point ( °F °C ) Humidity (%) Winds ( mph kmh ) Pressure ( in mb ) Visibility ( mi km ) Precip ( " mm )
12:52 am 00:52 Clear 70 21.1 51 10.6 51 51 E 10 17 30.23 1024 10 16 0.00 0.00
1:52 am 01:52 Clear 70 21.1 52 11.1 53 53 ENE 7 11 30.23 1024 10 16 0.00 0.00
2:52 am 02:52 Clear 69 20.6 53 11.7 57 57 ENE 9 15 30.22 1024 10 16 0.00 0.00
3:52 am 03:52 Clear 66 18.9 53 11.7 63 63 E 7 11 30.22 1023 10 16 0.00 0.00
4:52 am 04:52 Clear 65 18.3 52 11.1 63 63 E 5 7 30.22 1023 10 16 0.00 0.00
5:52 am 05:52 Mostly Clear 65 18.3 52 11.1 63 63 E 5 7 30.23 1024 10 16 0.00 0.00
6:52 am 06:52 Partly Cloudy 65 18.3 54 12.2 68 68 E 5 7 30.24 1024 10 16 0.00 0.00
7:52 am 07:52 Partly Cloudy 69 20.6 54 12.2 59 59 ENE 7 11 30.26 1025 10 16 0.00 0.00
8:52 am 08:52 Mostly Sunny 73 22.8 55 12.8 53 53 E 7 11 30.27 1025 10 16 0.00 0.00
9:52 am 09:52 Mostly Sunny 76 24.4 54 12.2 47 47 E 9 15 30.28 1025 10 16 0.00 0.00
10:52 am 10:52 Mostly Sunny 79 26.1 58 14.4 49 49 E 7 11 30.27 1025 10 16 0.00 0.00
11:52 am 11:52 Partly Cloudy 81 27.2 61 16.1 51 51 VRB 5 7 30.27 1025 10 16 0.00 0.00
12:52 pm 12:52 Partly Cloudy 85 29.4 63 17.2 48 48 Calm 30.25 1024 10 16 0.00 0.00
1:52 pm 13:52 Partly Cloudy 87 30.6 64 17.8 46 46 undefined N/A 30.23 1024 10 16 0.00 0.00
2:52 pm 14:52 Partly Cloudy 87 30.6 64 17.8 46 46 Calm 30.22 1023 10 16 0.00 0.00
3:52 pm 15:52 Mostly Cloudy 90 32.2 65 18.3 44 44 S 6 9 30.22 1023 10 16 0.00 0.00
4:52 pm 16:52 Mostly Cloudy 88 31.1 63 17.2 43 43 N 5 7 30.20 1023 10 16 0.00 0.00
5:52 pm 17:52 Partly Cloudy 90 32.2 62 16.7 39 39 Calm 30.19 1023 10 16 0.00 0.00
6:52 pm 18:52 Partly Cloudy 86 30 63 17.2 46 46 NNW 6 9 30.19 1022 10 16 0.00 0.00
7:52 pm 19:52 Partly Cloudy 88 31.1 63 17.2 43 43 VRB 5 7 30.19 1022 10 16 0.00 0.00
8:52 pm 20:52 Partly Cloudy 83 28.3 64 17.8 53 53 S 5 7 30.19 1022 10 16 0.00 0.00
9:52 pm 21:52 Partly Cloudy 82 27.8 64 17.8 55 55 Calm 30.20 1023 10 16 0.00 0.00
10:52 pm 22:52 Partly Cloudy 80 26.7 64 17.8 58 58 E 6 9 30.22 1023 10 16 0.00 0.00
11:52 pm 23:52 Partly Cloudy 79 26.1 64 17.8 60 60 E 3 6 30.21 1023 10 16 0.00 0.00

Powered by AerisWeather